Location: Newark
(5.8900°S, 42.6378°W)
Time: 07:05:51
(UTC+00:00)

deb Explorer IX - Pass Details

Date: 28 October 2019
Orbit: 546 x 1105 km, 38.8° (Epoch: 17 November)

Event Time Altitude Azimuth Distance (km) Brightness Sun altitude
Rises 20:50:17 0° 317° (NW) 3,650 ? -2.5°
Reaches altitude 10° 20:52:50 10° 319° (NW) 2,771 ? -3.1°
Maximum altitude 20:59:40 70° 42° (NE) 1,138 ? -4.8°
Drops below altitude 10° 21:06:58 10° 124° (SE) 2,961 ? -6.5°
Sets 21:09:46 0° 126° (SE) 3,914 ? -7.2°
